EHI
15 14 12 11 11 10 11 12 12 12 13 13 11 12 12 13 16 15 12 12 13 12 12 12 9 7 9 10 8 6 5 6 6 5 5 7 8 9 9 7 4 3 2
15 14 12 12 12 11 10 11 11 12 12 12 12 12 13 13 15 15 12 11 12 12 13 13 11 10 11 10 8 6 5 5 6 6 6 7 8 9 10 8 5 3 3
13 13 13 12 11 10 9 9 9 11 11 10 11 13 13 13 14 14 13 11 10 11 12 13 13 13 13 12 11 9 7 7 7 8 8 8 8 9 9 7 4 4 3
9 11 12 12 10 7 6 6 7 8 8 9 10 11 12 13 14 14 13 11 10 9 10 12 12 13 12 13 13 12 11 10 9 9 9 9 9 8 7 4 3 3 2
9 9 9 9 8 5 3 3 4 4 5 7 8 9 11 12 11 12 11 10 9 9 10 10 10 10 9 9 10 11 11 10 10 10 10 10 10 9 7 4 3 3 2
8 7 7 7 6 5 3 2 1 1 3 5 7 8 10 10 8 7 7 7 8 10 11 10 9 8 7 6 6 6 6 7 8 10 10 10 10 10 9 7 5 3 2
6 6 5 6 6 6 4 3 2 2 4 5 6 7 7 7 5 3 4 5 7 9 10 10 8 7 6 6 6 5 4 5 8 11 11 10 10 11 12 10 8 5 4
5 4 4 4 5 5 5 5 4 4 6 7 7 6 6 5 3 1 2 5 6 8 8 8 7 6 7 8 9 8 7 7 8 10 11 10 10 11 12 12 9 6 5
5 4 3 3 4 4 5 5 6 7 8 8 6 6 7 6 3 1 2 6 6 6 6 6 6 6 6 8 11 12 11 10 9 9 9 8 7 7 8 8 8 6 4
6 5 4 4 4 5 6 7 7 7 7 7 5 6 7 8 5 1 3 7 8 7 7 6 6 5 5 6 9 11 11 11 11 11 10 8 7 6 5 6 6 5 4
8 7 7 6 6 6 7 8 7 5 5 5 4 4 6 7 6 2 2 6 9 10 9 8 7 5 2 2 4 8 9 9 12 15 14 12 11 10 8 7 7 6 5
10 10 10 9 7 6 7 7 6 4 4 4 3 3 4 6 6 3 2 3 6 9 9 9 8 5 1 0 1 4 4 6 10 13 14 15 15 14 13 10 8 7 6
11 12 12 10 9 7 6 5 5 5 5 4 4 4 5 6 6 4 3 2 2 4 6 6 4 3 1 0 1 1 2 6 10 11 12 14 15 15 14 12 10 7 6
12 13 12 11 9 8 7 6 5 5 5 6 6 6 6 7 6 4 4 4 3 3 4 4 3 2 1 1 3 4 6 9 11 11 11 12 14 14 13 12 10 7 5
12 12 12 11 10 10 8 7 5 5 5 5 5 5 6 6 5 4 3 4 4 3 4 4 4 4 4 4 6 8 9 10 11 12 12 12 13 14 12 11 10 7 4
11 11 10 10 11 10 9 8 6 4 3 3 2 2 3 4 3 2 1 1 2 2 3 4 4 5 5 5 6 9 10 9 9 9 10 10 12 12 12 11 10 7 5
9 9 9 10 10 9 8 8 7 5 3 1 0 0 1 2 1 1 0 0 0 0 2 3 3 4 4 4 5 7 8 8 7 7 7 8 9 9 9 9 8 8 7
8 9 9 9 8 7 6 7 7 7 5 2 1 0 0 0 0 0 0 0 0 0 1 3 3 3 3 3 4 6 6 6 7 7 7 8 8 6 5 6 6 6 6
9 9 9 8 7 5 4 4 4 4 3 2 1 0 0 0 0 0 0 0 0 0 1 2 3 2 3 3 4 5 5 5 6 7 7 7 7 6 4 4 5 4 4
8 7 6 5 5 4 2 1 1 1 1 1 1 0 0 0 0 0 0 0 0 0 1 2 1 1 1 3 3 4 3 2 2 3 4 5 6 6 4 4 4 3 3
4 3 2 2 2 1 1 0 0 0 0 0 0 0 0 0 0 0 0 0 0 0 1 1 0 0 1 2 2 2 1 1 0 1 2 4 5 6 5 4 3 3 3
1 1 1 0 0 0 0 0 0 0 0 0 0 0 0 0 0 0 0 0 0 0 0 0 0 0 0 1 1 1 0 0 0 1 2 4 5 5 4 3 3 3 3
2 1 0 0 0 0 0 0 0 0 0 0 0 0 0 0 0 0 0 0 0 0 0 0 0 0 1 1 1 0 0 0 0 1 2 3 4 3 2 1 1 2 1
2 1 1 0 0 0 0 0 0 0 0 0 0 0 0 0 0 0 0 0 0 0 0 0 0 0 1 2 2 1 0 0 0 1 2 2 1 1 0 0 0 1 1
3 2 1 0 0 0 0 0 0 0 0 0 0 0 0 0 0 0 0 0 0 0 0 0 0 0 1 1 2 2 1 0 0 0 1 1 0 0 0 0 0 1 2
3 3 1 0 0 0 0 0 0 0 0 0 0 0 0 0 0 0 0 0 0 0 0 0 0 0 0 1 2 2 1 0 0 0 0 1 0 0 0 0 0 1 2
Wind_Speed
3 3 2 2 2 2 1 1 1 0 1 1 1 1 0 0 1 1 1 2 2 1 1 1 1 1 1 1 1 1 1 2 2 2 1 1 1 3 2 2 1 1 2
2 2 2 2 2 1 1 1 1 1 1 1 1 1 1 0 1 1 2 1 2 2 1 1 1 1 1 1 1 1 1 1 2 2 2 1 1 2 2 3 2 2 1
2 2 2 2 2 2 1 1 1 1 1 1 1 1 1 0 1 1 1 1 2 1 1 1 1 1 1 1 1 1 1 1 2 3 2 1 1 1 2 2 2 2 3
2 2 2 2 2 2 1 1 1 1 1 1 1 0 0 1 1 1 1 1 1 1 1 1 1 1 2 2 2 2 2 3 3 3 2 2 1 1 2 2 2 2 3
2 2 2 1 1 1 2 1 1 1 1 1 1 1 1 1 1 1 1 2 2 2 2 2 2 1 1 2 3 2 3 3 3 3 3 2 1 1 3 3 3 2 2
2 2 2 2 2 2 2 2 2 1 1 1 1 1 2 1 3 2 2 2 2 3 2 2 3 3 3 3 3 3 4 4 4 4 4 3 2 3 3 4 3 3 3
3 2 2 2 2 2 3 2 2 2 2 2 2 2 2 0 0 1 3 3 3 3 3 3 3 2 3 3 4 6 6 5 6 6 6 5 4 3 4 5 4 4 4
3 2 2 3 3 3 3 3 3 3 3 3 3 3 3 2 2 3 4 3 3 3 3 4 3 2 2 3 4 4 5 5 5 6 5 5 4 3 4 5 5 5 5
3 2 3 3 3 3 3 3 3 3 3 4 3 3 4 3 3 3 4 3 3 3 3 3 3 3 2 4 5 5 5 4 5 6 5 5 3 3 4 5 4 5 4
2 2 3 3 4 4 4 4 4 4 4 4 3 4 4 4 3 3 4 4 3 4 4 4 4 3 2 3 6 5 5 5 5 4 5 6 6 6 7 6 5 5 4
2 3 2 2 3 3 3 4 4 4 4 4 3 4 4 4 4 4 4 4 4 4 4 4 2 3 3 4 6 6 6 6 6 5 5 4 4 4 5 4 4 5 5
2 2 2 3 3 2 3 4 4 4 5 4 4 4 4 4 4 4 5 5 6 5 5 4 1 2 4 6 6 5 6 7 6 5 4 4 4 4 3 3 4 4 4
2 2 2 3 3 3 4 4 4 4 5 4 4 4 4 3 3 5 6 6 6 5 4 3 3 4 6 7 7 7 7 6 5 5 5 4 4 3 3 4 4 4 5
1 2 2 2 3 3 3 4 4 4 4 4 4 4 4 3 3 3 3 4 5 5 5 4 7 8 7 6 5 6 6 5 5 5 5 4 4 4 4 4 4 4 4
1 2 2 2 2 2 3 3 4 3 4 5 5 4 4 4 2 2 3 3 3 3 4 5 4 4 4 4 4 4 4 4 5 4 4 4 4 4 4 4 4 4 5
1 2 2 2 2 2 2 2 1 3 2 4 5 5 4 2 2 3 4 4 4 4 5 5 5 5 5 5 5 5 5 5 5 5 5 5 5 5 4 4 4 5 6
2 2 2 2 2 2 2 2 2 1 2 3 4 4 5 4 4 4 5 5 5 5 6 6 6 5 5 5 5 5 5 4 4 5 5 5 5 5 4 4 4 5 6
3 2 3 2 2 2 2 3 3 3 3 2 3 4 5 5 5 6 5 4 4 5 6 6 6 6 5 5 5 5 5 4 4 5 5 5 4 5 5 5 5 5 5
3 2 2 2 2 2 2 2 3 3 3 3 3 1 3 4 5 5 5 5 5 5 5 6 6 5 5 5 5 5 5 5 5 5 5 5 5 5 5 5 5 5 6
2 1 2 2 2 2 2 2 2 3 3 3 3 3 2 3 3 3 4 5 5 5 5 5 5 5 5 5 5 5 5 5 5 5 5 4 4 4 5 5 5 5 4
2 1 1 2 2 2 2 3 3 3 3 3 3 3 3 4 5 5 4 4 4 5 5 5 5 5 5 4 5 5 6 5 4 4 4 4 4 4 4 4 4 5 5
2 2 2 2 2 2 3 3 3 3 4 4 4 3 3 5 5 4 4 4 4 5 5 5 5 4 3 4 4 4 5 5 4 4 4 4 4 4 4 4 4 4 5
2 2 2 2 2 2 3 3 3 4 4 4 4 4 3 4 4 4 4 4 4 4 4 4 4 4 4 4 4 4 4 4 4 4 4 4 4 4 4 5 5 5 5
2 2 3 3 3 3 3 3 4 4 4 4 4 4 4 4 4 4 4 4 4 4 4 4 4 5 6 5 4 4 3 4 5 5 5 5 5 4 4 5 5 5 5
2 3 3 3 3 3 3 4 4 4 4 4 4 4 4 4 4 4 4 4 4 4 4 4 4 4 5 6 6 4 2 2 3 5 5 5 5 5 4 5 4 4 4
3 3 3 3 3 3 4 4 4 4 4 4 4 4 4 4 4 4 4 4 4 4 4 4 4 5 5 5 5 4 1 1 2 4 5 5 5 4 4 4 5 4 4
Wind_Direction
184 188 184 185 178 186 193 191 171 216 231 240 245 247 278 286 253 227 216 190 200 201 206 187 236 315 294 297 286 283 283 292 280 309 327 45 351 325 356 313 284 256 122
178 184 183 186 187 199 179 193 208 214 219 216 232 239 235 233 243 224 221 204 205 207 209 205 222 195 218 294 301 296 297 300 281 289 294 299 302 300 312 289 298 294 322
180 186 184 198 194 203 205 201 207 223 232 222 215 234 252 243 228 221 221 227 222 217 217 214 225 218 234 251 270 272 268 255 268 262 268 313 285 304 286 276 288 297 283
192 200 199 212 216 225 232 235 235 238 244 257 252 239 210 230 230 231 230 244 242 233 227 231 234 237 243 250 237 250 266 267 258 261 266 257 253 263 270 271 269 257 286
199 209 206 216 214 233 237 230 228 242 238 242 262 261 248 232 229 269 246 239 246 239 227 224 213 217 313 291 292 282 267 267 266 267 264 260 258 269 271 276 281 274 252
199 210 207 214 221 227 230 222 223 238 254 239 250 257 258 277 57 10 296 261 254 249 238 227 211 193 202 214 252 277 283 273 281 281 274 279 275 267 276 275 276 279 277
200 210 213 219 223 228 234 229 229 235 243 246 245 248 242 220 66 279 280 271 258 255 253 250 258 217 219 240 218 219 230 242 260 275 282 285 280 274 276 269 274 284 296
206 217 219 221 226 231 234 232 234 236 239 243 245 246 242 226 217 242 261 250 258 254 246 244 246 257 265 279 271 254 246 236 235 243 264 272 279 283 262 267 271 262 256
214 227 231 231 234 234 235 238 239 237 237 238 239 240 242 238 227 236 257 243 240 246 246 245 250 250 284 280 266 262 257 252 219 218 238 253 266 257 268 264 259 260 259
226 237 238 238 240 240 239 242 243 239 239 243 242 248 250 249 226 231 256 252 248 247 237 228 222 245 264 264 259 261 261 264 268 232 218 220 226 215 218 245 263 265 273
232 238 239 245 246 242 244 247 247 247 249 251 250 249 248 247 215 213 242 258 262 257 253 249 223 180 226 249 259 259 265 273 263 251 239 229 222 221 221 227 255 272 278
230 236 245 252 258 247 243 248 248 249 246 243 242 248 241 233 227 215 219 248 278 265 265 267 252 174 226 244 247 252 258 257 251 249 247 239 238 239 233 235 239 255 274
236 247 259 266 267 261 246 241 239 236 246 250 248 248 248 243 208 199 210 233 253 258 272 294 276 244 241 236 231 235 242 244 245 246 247 246 247 248 242 231 226 228 240
243 255 255 257 262 259 259 251 252 252 255 256 256 258 258 248 243 224 221 223 225 238 252 237 221 229 239 254 244 227 236 248 255 255 260 259 251 242 242 243 241 237 241
266 270 267 257 262 268 262 266 264 266 270 272 273 268 269 265 280 322 287 272 274 279 279 261 254 246 244 247 250 247 240 236 242 251 257 259 256 254 253 249 245 248 251
267 277 281 278 266 264 268 271 251 261 258 253 265 275 278 280 267 260 264 273 277 271 261 257 259 260 260 260 258 254 247 244 245 248 248 250 251 249 250 251 249 251 253
273 284 284 287 286 287 283 282 282 256 233 238 236 243 250 253 244 246 250 256 246 228 239 249 257 259 259 259 261 262 260 254 257 255 254 255 256 256 254 253 251 252 256
273 280 280 280 289 295 298 295 290 290 284 273 223 205 217 231 238 239 232 236 240 228 249 255 255 255 256 258 261 265 268 267 256 256 257 258 260 261 257 255 254 256 258
270 281 297 304 296 296 295 290 290 292 293 294 296 221 208 225 229 234 224 247 259 258 256 258 261 264 266 266 266 266 267 265 264 264 262 259 255 255 257 258 257 253 255
287 351 309 294 294 295 294 298 300 298 292 291 294 301 288 262 263 247 236 252 259 264 267 267 266 267 267 271 273 270 265 263 261 257 258 259 259 257 257 258 261 260 256
321 320 272 274 292 307 306 303 304 298 295 292 290 304 304 281 276 273 268 263 263 268 273 275 274 268 265 266 270 270 267 266 264 263 262 261 263 263 260 257 258 259 261
309 300 302 309 312 312 308 301 295 292 292 294 297 285 247 264 277 280 275 273 273 274 274 272 271 272 272 268 269 271 274 275 275 274 268 263 258 260 264 261 256 258 256
288 299 301 302 302 299 284 291 297 299 298 298 299 300 287 284 287 288 286 281 283 285 286 285 281 278 276 274 273 270 272 276 274 274 274 264 259 257 255 257 259 257 253
300 298 299 299 297 297 303 304 300 298 299 301 300 296 294 290 290 294 294 296 292 290 290 288 285 286 288 286 278 271 270 282 282 274 270 271 269 262 260 259 258 261 263
301 303 304 305 304 303 305 305 306 309 309 307 304 302 302 299 294 294 295 295 296 293 290 287 286 287 287 286 287 289 313 302 284 286 270 263 264 263 263 265 264 264 265
309 306 306 304 303 303 302 301 304 307 306 308 308 311 311 307 304 305 305 306 306 299 293 289 296 298 294 285 294 313 297 248 254 267 269 263 259 256 260 259 259 260 260